Regional Weather Roundup
Issued by NWS

Home | Current Version | Previous Version | Text Only | Print | Product List | Glossary Off
Versions: 1 2 3 4 5 6 7 8 9 10 11 12 13 14 15 16 17 18 19 20 21 22 23 24 25 26 27 28 29 30 31 32 33 34 35 36 37 38 39 40 41 42 43 44 45 46 47 48 49 50

000
ASUS43 KLOT 251606
RWRIL

ILLINOIS REGIONAL WEATHER ROUNDUP
NATIONAL WEATHER SERVICE CHICAGO/ROMEOVILLE IL
1100 AM CDT SAT OCT 25 2014

NOTE: "FAIR" INDICATES FEW OR NO CLOUDS BELOW 12,000 FEET WITH NO
SIGNIFICANT WEATHER AND/OR OBSTRUCTIONS TO VISIBILITY.

* THESE STATIONS ARE NOT UNDER NWS QUALITY CONTROL. THEY ALSO MAY NOT
  REPORT WEATHER SUCH AS PRECIPITATION OR FOG.

ILZ001-002-007-009-015-016-024-251700-
NORTHWEST ILLINOIS

CITY           SKY/WX    TMP DP  RH WIND       PRES   REMARKS
MOLINE         SUNNY     66  45  46 NW9       30.03R
STERLING*      SUNNY     68  48  49 N8        30.01S
SAVANNA*       SUNNY     64  46  51 NW5       30.01S
$$

ILZ003-004-008-010-011-017-018-251700-
NORTH CENTRAL ILLINOIS

CITY           SKY/WX    TMP DP  RH WIND       PRES   REMARKS
ROCKFORD       SUNNY     66  45  46 NW8       29.99F
FREEPORT*      SUNNY     64  43  47 NW8G17    30.01S
ROCHELLE*      SUNNY     64  49  58 NW8       30.00R
DE KALB*       SUNNY     62  49  62 NW14      29.99S
PERU*          SUNNY     63  55  74 NW13      30.02R
$$

ILZ005-006-012>014-019>023-251700-
NORTHEAST ILLINOIS

CITY           SKY/WX    TMP DP  RH WIND       PRES   REMARKS
CHICAGO-OHARE  MOSUNNY   65  48  54 NW14      29.95R
CHICAGO-MIDWAY MOSUNNY   67  51  56 NW13      29.95R
AURORA         SUNNY     66  49  54 NW13      29.98R
LANSING*       SUNNY     64  55  71 NW9       29.96R
JOLIET*        SUNNY     64  53  69 NW9       29.98R
WAUKEGAN       SUNNY     64  44  48 NW9       29.93S
DUPAGE AIRPORT SUNNY     66  49  54 NW15      29.97R
KANKAKEE*      MOSUNNY   62  56  81 W13       29.97F
WHEELING       SUNNY     66  48  52 NW9       29.97R
MORRIS*        SUNNY     65  55  69 NW12      29.97S
ROMEOVILLE*    SUNNY     64  52  66 NW12      29.98R
NORTHERLY ISL    N/A     66  49  54 NW6         N/A
$$

LMZ740>746-251700-
SOUTHERN LAKE MICHIGAN

STATION/POSITION SKY/WX   TEMP    WIND        PRES    VSBY  WAVE
                          AIR SEA DIR/SP/G                  HT/PER
                          (F)     (DEG/KT/KT) (MB)    (MI)  (FT/S)
SOUTHERN BUOY              56 54  290/ 16/ 19 1012.7R         2/ 3
WAUKEGAN HARBOR            63     300/  9/ 15   N/A
HARRISON CRIB              61     290/ 10/ 11   N/A
BURNHAM HARBOR             66     300/ 10/ 13   N/A
CALUMET HARBOR             66     300/  5/ 12 1012.9R
MICHIGAN CITY              58     220/ 16/ 17   N/A
$$

ILZ025>027-034>036-040-047-049-050-058-095>099-251700-
WEST-CENTRAL ILLINOIS

CITY           SKY/WX    TMP DP  RH WIND       PRES   REMARKS
QUINCY         SUNNY     67  57  70 VRB3      30.05S
GALESBURG*     SUNNY     63  53  70 N7        30.04R
MACOMB*        SUNNY     63  57  83 NW9       30.07R
PITTSFIELD*    SUNNY     67  60  79 W3        30.06S
$$

ILZ028>032-037-038-041>044-048-051>054-059>061-251700-
CENTRAL ILLINOIS

CITY           SKY/WX    TMP DP  RH WIND       PRES   REMARKS
PONTIAC        PTSUNNY   63  58  83 W9        30.00S HAZE
BLOOMINGTON    SUNNY     63  58  83 W8        30.02S
DECATUR        MOSUNNY   65  59  81 NW7       30.02F HAZE
PEORIA         MOSUNNY   59  55  87 NW6       30.03R
LACON*         SUNNY     62  55  79 W5        30.01R
LINCOLN*       SUNNY     69  59  69 W5        29.99F
SPRINGFIELD    SUNNY     68  60  75 W6        30.04R HAZE
TAYLORVILLE    SUNNY     66  59  77 NW6       30.03F
$$

ILZ033-039-045-046-055>057-062-063-251700-
EAST-CENTRAL ILLINOIS

CITY           SKY/WX    TMP DP  RH WIND       PRES   REMARKS
CHAMPAIGN      SUNNY     63  58  83 W13G18    30.01R
DANVILLE*      SUNNY     65  56  72 W9        29.97R
RANTOUL*       MOSUNNY   62  57  83 NW7       29.99F HAZE
MATTOON        SUNNY     67  59  75 W10       30.01S
PARIS*         SUNNY     69  59  71 W8        30.01S
$$

ILZ079-100>102-251700-
SOUTHWEST ILLINOIS

CITY           SKY/WX    TMP DP  RH WIND       PRES   REMARKS
ALTON          SUNNY     70  61  73 W6        30.05R
BELLEVILLE     SUNNY     71  65  80 VRB5      30.03F
CAHOKIA*       SUNNY     72  62  71 N5        30.04S
SPARTA*        SUNNY     68  61  78 CALM      30.05S
$$

ILZ064>066-069>071-074>076-080>082-084>086-088>090-092>094-251700-
SOUTH-CENTRAL ILLINOIS

CITY           SKY/WX    TMP DP  RH WIND       PRES   REMARKS
CARBONDALE     SUNNY     72  61  68 VRB5      30.04F
CAIRO*         SUNNY     70  59  69 CALM      30.06F
EFFINGHAM*     SUNNY     69  56  63 NW6       30.03S
MARION         MOSUNNY   70  63  78 NW8       30.05F
MT. VERNON     SUNNY     70  61  73 W3        30.04F
CENTRALIA*     SUNNY     68  59  73 CALM      30.03F
SALEM*         SUNNY     71  62  75 W3        30.02F
METROPOLIS*    PTSUNNY   69  61  76 W3        30.05F
$$

ILZ067-068-072-073-078-083-087-091-251700-
SOUTHEAST ILLINOIS

CITY           SKY/WX    TMP DP  RH WIND       PRES   REMARKS
LAWRENCEVILLE  SUNNY     67  59  75 NW5       30.02S
FLORA*         SUNNY     69  59  70 NW6       30.03S
FAIRFIELD*     SUNNY     70  59  69 W3        30.02F
HARRISBURG*    SUNNY     69  62  78 NW3       30.05F
ROBINSON*      SUNNY     69  59  69 NW3       30.01F
CARMI*         SUNNY     71  62  72 NW3       30.02F
$$

ABBREVIATIONS USED IN REMARKS
   TC - TEMPERATURE IN CELSIUS
  WCI - WIND CHILL INDEX
   HX - HEAT INDEX
  VSB - VISIBILITY
$$




USA.gov is the U.S. government's official web portal to all federal, state and local government web resources and services.